Location: Lansingburgh
(42.7845°N, 73.6696°W)
Time: 05:42:31
(UTC+00:00)

FALCON 9 R/B - Pass Details

Date: 24 January 2020
Orbit: 286 x 10158 km, 34.5° (Epoch: 17 February)

Event Time Altitude Azimuth Distance (km) Brightness Sun altitude
Rises 23:24:26 0° 232° (SW) 10,463 9.0 -16.0°
Reaches altitude 10° 23:35:24 10° 227° (SW) 7,425 7.8 -18.0°
Maximum altitude 23:51:14 33° 173° (S) 2,534 4.6 -20.9°
Enters shadow 23:54:48 22° 129° (SE) 2,270 4.0 -21.5°
